Showing default

ASTROCAST-01, 43798

Orbit data source: Space-Track

ASTROCAST-01, 43798 is a payload satellite owned by Astrocast (CH) in SSO that was launched on Mon, 03 Dec 2018 UTC via an FALCON 9 launch vehicle from the Air Force Western Test Range (AFWTR). Payload-class satellites include a variety of spacecraft equipped with specific instruments for various scientific and technological missions. These include communications satellites like Starlink; space stations such as the ISS; scientific satellites like the Hubble; Earth observation satellites from companies like Planet Labs, Umbra, and HawkEye 360; GPS; miniature CubeSats for education and research; and military/defense satellites.

Loading next visibility...
Identifier
43798, 2018-099AS
Orbit
SSO
Country
Flag of CHCH / SWTZ
Related business
Manufacturer
Astrocast
Mission
Operational Commercial Communications
Bus & Motor
CUBESAT 3U, Unknown motor
Mass
5 kg wet, 5 kg dry
Launch date (UTC)
2018-12-03 (8 years ago)
Launch vehicle
FALCON 9
Launch site
Air Force Western Test Range (AFWTR)
Object type
Payload
Rocket body
Debris
Shape & HBR
Box, 0.2 m
Radar Cross Section
0.035 m², Medium (>0.1 m² and < 1m²)

Expand to show TLE details & history
Last TLE update: 1 day ago

TLE from 1 day ago
0 ASTROCAST-01
1 43798U 18099AS  26235.19396220  .00038437  00000-0  59198-3 0  9998
2 43798  97.4328 315.9937 0002646 356.2587   3.8646 15.54098623424827
Epoch: 2026-08-23T04:39Z
TLE epoch observation values (Epoch: 2026-08-23T04:39:18.334Z)
Latitude
-0.00002°
Longitude
-85.32621°
Altitude
406.119 km
Speed
7.668 km/s
True Right ascension
21h 03m 58s
True Declination
0° 00' 00"
Sunlit
Object was in full shadow at epoch
Visualization orbit readout
Latitude
Unknown
Longitude
Unknown
Altitude
Unknown
Speed
Unknown
Apparent Right ascension
Unknown
Apparent Declination
Unknown
Sunlit
N/A
Visualization observer readout
Local Sidereal Time
21:34:34
Azimuth
Unknown
Elevation
Unknown
Doppler factor
Unknown
Orbital elements
Apogee altitude
403.49 km
Perigee altitude
399.902 km
Semi-major axis
6,779.833 km
Eccentricity
0.00026
Inclination
97.4328°
RAAN
315.9937°
Arg. of periapsis
356.2587°
True anomaly
3.86664°
Mean anomaly
3.8646°
Eccentric anomaly
3.86562°
Mean motion
3.8879 °/min
Orbital period
92.6 mins
BSTAR
0.00059198
Loading maneuver chart data...
Computing Atmospheric mass density...
Loading historical data...
Loading historical data...
Loading historical data...
Loading historical data...
Loading historical data...
Loading historical data...
Loading historical data...

Documentation

Showing up to 5 results
|